Ogden, UT

6:13 PM MDT on July 21, 2017 (GMT -0600)
Ogden-Hinckley

Weather History for KOGD - February, 2013

Change the Weather History Date:

Thursday, February 7, 2013

  Actual Average Record
Temperature  
Mean Temperature 24 °F -  
Max Temperature 30 °F 39 °F 64 °F (2015)
Min Temperature 19 °F 19 °F -12 °F (1989)
Degree Days  
Heating Degree Days 40    
Moisture  
Dew Point 18 °F    
Average Humidity 78    
Maximum Humidity 85    
Minimum Humidity 66    
Precipitation  
Precipitation 0.00 in - - ()
Sea Level Pressure  
Sea Level Pressure 30.13 in    
Wind  
Wind Speed 2 mph (NW)    
Max Wind Speed 8 mph    
Max Gust Speed -    
Visibility 3 miles    
Events Fog    
Averages and records for this station are not official NWS values.
T = Trace of Precipitation, MM = Missing Value Source: NWS Daily Summary

Daily Weather History Graph

Daily Weather History Graph

Search for Another Location

Airport or City:

Trip Planner

Search our weather history database for the weather conditions in past years. The results will help you decide how hot, cold, wet, or windy it might be!

Date:

Astronomy

Feb. 07, 2013 Rise Set
Actual Time 7:32 AM MST 5:52 PM MST
Civil Twilight 7:03 AM MST 6:21 PM MST
Nautical Twilight 6:30 AM MST 6:54 PM MST
Astronomical Twilight 5:58 AM MST 7:26 PM MST
Moon 5:15 AM MST (2/7) 3:20 PM MST (2/7)
Length of Visible Light 11h 17m
Length of Day
10h 20m
Waning Crescent, 8% of the Moon is Illuminated
Feb 7
Waning Crescent
Feb 10
New
Feb 17
First Quarter
Feb 25
Full
Mar 4
Last Quarter

Hourly Weather History & Observations

Time (MST) Temp. Windchill Dew Point Humidity Pressure Visibility Wind Dir Wind Speed Gust Speed Precip Events Conditions
12:53 AM 26.1 °F 21.9 °F 21.9 °F 84% 30.26 in 0.2 mi NE 3.5 mph - 0.00 in Fog Light Freezing Fog
1:53 AM 25.0 °F - 21.0 °F 85% 30.25 in 0.2 mi Calm Calm - N/A Fog Light Freezing Fog
2:53 AM 24.1 °F 19.7 °F 19.0 °F 81% 30.25 in 0.2 mi NW 3.5 mph - 0.00 in   Haze
3:53 AM 23.0 °F - 18.0 °F 81% 30.24 in 0.2 mi Calm Calm - N/A   Haze
4:53 AM 21.9 °F - 16.0 °F 78% 30.25 in 0.2 mi Calm Calm - N/A   Haze
5:53 AM 19.9 °F 12.1 °F 16.0 °F 85% 30.26 in 0.2 mi WNW 5.8 mph - N/A Fog Light Freezing Fog
6:53 AM 19.9 °F 14.9 °F 16.0 °F 85% 30.24 in 0.2 mi South 3.5 mph - N/A Fog Light Freezing Fog
7:53 AM 19.0 °F 11.1 °F 14.0 °F 81% 30.24 in 0.2 mi WNW 5.8 mph - N/A   Haze
8:53 AM 21.9 °F - 17.1 °F 82% 30.24 in 0.2 mi Calm Calm - N/A   Haze
9:18 AM 24.8 °F - 19.4 °F 80% 30.14 in 4.0 mi Calm Calm - N/A   Haze
9:53 AM 25.0 °F - 19.0 °F 78% 30.21 in 4.0 mi Calm Calm - N/A   Haze
10:53 AM 30.0 °F - 21.0 °F 69% 30.19 in 5.0 mi Calm Calm - N/A   Haze
11:53 AM 25.0 °F 18.1 °F 19.9 °F 81% 30.18 in 4.0 mi NW 5.8 mph - N/A   Haze
12:53 PM 28.9 °F - 21.0 °F 72% 30.11 in 4.0 mi Calm Calm - N/A   Haze
1:53 PM 26.1 °F 17.6 °F 19.0 °F 75% 30.09 in 4.0 mi NW 8.1 mph - N/A   Haze
2:53 PM 30.0 °F - 19.9 °F 66% 30.05 in 6.0 mi Calm Calm - N/A   Haze
3:53 PM 28.0 °F 24.2 °F 19.9 °F 72% 30.03 in 5.0 mi WNW 3.5 mph - N/A   Haze
4:53 PM 26.1 °F 19.4 °F 19.0 °F 75% 30.02 in 5.0 mi NW 5.8 mph - N/A   Haze
5:53 PM 24.1 °F 19.7 °F 17.1 °F 75% 30.02 in 5.0 mi NNE 3.5 mph - N/A   Haze
6:53 PM 25.0 °F - 18.0 °F 75% 30.01 in 6.0 mi Calm Calm - N/A   Haze
7:53 PM 23.0 °F - 17.1 °F 78% 30.01 in 6.0 mi Calm Calm - N/A   Haze
8:53 PM 21.9 °F 17.2 °F 17.1 °F 82% 29.97 in 5.0 mi WNW 3.5 mph - N/A   Haze
9:53 PM 26.1 °F 20.5 °F 19.0 °F 75% 29.95 in 6.0 mi SW 4.6 mph - N/A   Haze
11:53 PM 21.9 °F - 17.1 °F 82% 29.93 in 5.0 mi Calm Calm - N/A   Haze